[Date Prev][Date Next][Thread Prev][Thread Next] - [Date Index][Thread Index][Author Index]

2 Line ISS Keps 4-12 - this update 8 sec's



ISS
1 25544U 98067A   01102.91407543  .00092077  00000-0  10806-2 0  8673
2 25544  51.5719  57.6661 0012297 271.0657 189.3227 15.60627782136882

----
Via the sarex mailing list at AMSAT.ORG courtesy of AMSAT-NA.
To unsubscribe, send "unsubscribe sarex" to Majordomo@amsat.org



AMSAT Top AMSAT Home